contact:dominique.lefevre@mio.osupytheas.fr, maurice.libes@osupytheas.fr, didier.mallarino@osupytheas.fr
Project:EMSO http://www.emso-fr.org/EMSO-France
Depth: 2436.0 m
Title:EMSO Ligure Ouest : Data MII capteur MICROCAT
DateTime_Computer,Latitude,Longitude,Temperature,Conductivity,Pressure,DateTime_Instrument
DateTime_Computer,Latitude,Longitude,degC,S m-1,dbar,DateTime_Instrument
2020-09-04T00:01:40Z,42.805,6.029,13.2981,4.59994,2470.133,2020-9-04T02:02:30Z
2020-09-04T00:04:42Z,42.805,6.029,13.2985,4.60009,2470.147,2020-9-04T02:05:32Z
2020-09-04T00:07:46Z,42.805,6.029,13.2981,4.60001,2470.147,2020-9-04T02:08:37Z
2020-09-04T00:10:48Z,42.805,6.029,13.2982,4.59994,2470.124,2020-9-04T02:11:38Z
2020-09-04T00:13:52Z,42.805,6.029,13.2984,4.60007,2470.11,2020-9-04T02:14:43Z
2020-09-04T00:16:55Z,42.805,6.029,13.2983,4.60006,2470.124,2020-9-04T02:17:46Z
2020-09-04T00:20:00Z,42.805,6.029,13.2979,4.60003,2470.133,2020-9-04T02:20:50Z
2020-09-04T00:23:04Z,42.805,6.029,13.2976,4.60006,2470.133,2020-9-04T02:23:55Z
2020-09-04T00:26:08Z,42.805,6.029,13.2982,4.59986,2470.11,2020-9-04T02:26:59Z
2020-09-04T00:29:09Z,42.805,6.029,13.2983,4.60005,2470.087,2020-9-04T02:30:00Z
2020-09-04T00:32:13Z,42.805,6.029,13.2977,4.59991,2470.1,2020-9-04T02:33:03Z
2020-09-04T00:35:16Z,42.805,6.029,13.2976,4.59996,2470.133,2020-9-04T02:36:07Z
2020-09-04T00:38:20Z,42.805,6.029,13.2976,4.59997,2470.124,2020-9-04T02:39:11Z
2020-09-04T00:41:23Z,42.805,6.029,13.2983,4.59998,2470.124,2020-9-04T02:42:14Z
2020-09-04T00:44:26Z,42.805,6.029,13.2974,4.59995,2470.133,2020-9-04T02:45:17Z
2020-09-04T00:47:30Z,42.805,6.029,13.2986,4.59999,2470.11,2020-9-04T02:48:21Z
2020-09-04T00:50:34Z,42.805,6.029,13.2982,4.59996,2470.11,2020-9-04T02:51:25Z
2020-09-04T00:53:37Z,42.805,6.029,13.2978,4.59990,2470.124,2020-9-04T02:54:28Z
2020-09-04T00:56:42Z,42.805,6.029,13.2983,4.59994,2470.124,2020-9-04T02:57:32Z
2020-09-04T00:59:45Z,42.805,6.029,13.2988,4.60002,2470.124,2020-9-04T03:00:36Z
2020-09-04T01:02:50Z,42.805,6.029,13.2990,4.60001,2470.087,2020-9-04T03:03:41Z
2020-09-04T01:05:54Z,42.805,6.029,13.2979,4.60005,2470.1,2020-9-04T03:06:45Z
2020-09-04T01:08:57Z,42.805,6.029,13.2981,4.60004,2470.124,2020-9-04T03:09:48Z
2020-09-04T01:12:00Z,42.805,6.029,13.2983,4.60002,2470.147,2020-9-04T03:12:50Z
2020-09-04T01:15:03Z,42.805,6.029,13.2979,4.59997,2470.087,2020-9-04T03:15:54Z
2020-09-04T01:18:08Z,42.805,6.029,13.2986,4.60001,2470.1,2020-9-04T03:18:59Z
2020-09-04T01:21:12Z,42.805,6.029,13.2982,4.60000,2470.1,2020-9-04T03:22:03Z
2020-09-04T01:24:15Z,42.805,6.029,13.2981,4.60002,2470.087,2020-9-04T03:25:06Z
2020-09-04T01:27:19Z,42.805,6.029,13.2982,4.60000,2470.063,2020-9-04T03:28:10Z
2020-09-04T01:30:22Z,42.805,6.029,13.2990,4.59999,2470.087,2020-9-04T03:31:13Z
2020-09-04T01:33:24Z,42.805,6.029,13.2980,4.59995,2470.087,2020-9-04T03:34:15Z
2020-09-04T01:36:29Z,42.805,6.029,13.2982,4.60010,2470.087,2020-9-04T03:37:19Z
2020-09-04T01:39:33Z,42.805,6.029,13.2986,4.60027,2470.073,2020-9-04T03:40:24Z
2020-09-04T01:42:36Z,42.805,6.029,13.2981,4.59999,2470.1,2020-9-04T03:43:27Z
2020-09-04T01:45:38Z,42.805,6.029,13.2988,4.60015,2470.1,2020-9-04T03:46:29Z
2020-09-04T01:48:41Z,42.805,6.029,13.2979,4.60016,2470.063,2020-9-04T03:49:32Z
2020-09-04T01:51:44Z,42.805,6.029,13.2977,4.59990,2470.04,2020-9-04T03:52:35Z
2020-09-04T01:54:46Z,42.805,6.029,13.2978,4.60007,2470.063,2020-9-04T03:55:36Z
2020-09-04T01:57:49Z,42.805,6.029,13.2979,4.59991,2470.087,2020-9-04T03:58:40Z
2020-09-04T02:00:51Z,42.805,6.029,13.2984,4.59998,2470.087,2020-9-04T04:01:42Z
2020-09-04T02:03:54Z,42.805,6.029,13.2986,4.59998,2470.087,2020-9-04T04:04:45Z
2020-09-04T02:06:56Z,42.805,6.029,13.2995,4.60019,2470.063,2020-9-04T04:07:47Z
2020-09-04T02:09:58Z,42.805,6.029,13.2986,4.60017,2470.087,2020-9-04T04:10:49Z
2020-09-04T02:13:00Z,42.805,6.029,13.2983,4.60001,2470.053,2020-9-04T04:13:50Z
2020-09-04T02:16:03Z,42.805,6.029,13.2977,4.59997,2470.1,2020-9-04T04:16:54Z
2020-09-04T02:19:04Z,42.805,6.029,13.2987,4.60005,2470.063,2020-9-04T04:19:55Z
2020-09-04T02:22:09Z,42.805,6.029,13.2990,4.60008,2470.077,2020-9-04T04:23:00Z
2020-09-04T02:25:12Z,42.805,6.029,13.2976,4.59993,2470.077,2020-9-04T04:26:03Z
2020-09-04T02:28:15Z,42.805,6.029,13.2984,4.59992,2470.063,2020-9-04T04:29:06Z
2020-09-04T02:31:18Z,42.805,6.029,13.2980,4.59993,2470.063,2020-9-04T04:32:09Z
2020-09-04T02:34:21Z,42.805,6.029,13.2979,4.59988,2470.1,2020-9-04T04:35:12Z
2020-09-04T02:37:23Z,42.805,6.029,13.2986,4.60006,2470.04,2020-9-04T04:38:14Z
2020-09-04T02:40:27Z,42.805,6.029,13.2981,4.59990,2470.04,2020-9-04T04:41:18Z
2020-09-04T02:43:30Z,42.805,6.029,13.2985,4.59992,2470.063,2020-9-04T04:44:21Z
2020-09-04T02:46:33Z,42.805,6.029,13.2979,4.59990,2470.017,2020-9-04T04:47:24Z
2020-09-04T02:49:35Z,42.805,6.029,13.2981,4.59996,2470.04,2020-9-04T04:50:26Z
2020-09-04T02:52:39Z,42.805,6.029,13.2979,4.60005,2470.04,2020-9-04T04:53:30Z
2020-09-04T02:55:41Z,42.805,6.029,13.2975,4.59991,2470.063,2020-9-04T04:56:32Z
2020-09-04T02:58:43Z,42.805,6.029,13.2980,4.59984,2470.063,2020-9-04T04:59:34Z
2020-09-04T03:01:47Z,42.805,6.029,13.2976,4.59989,2470.04,2020-9-04T05:02:38Z
2020-09-04T03:04:51Z,42.805,6.029,13.2978,4.59992,2470.017,2020-9-04T05:05:42Z
2020-09-04T03:07:54Z,42.805,6.029,13.2979,4.59991,2470.053,2020-9-04T05:08:45Z
2020-09-04T03:10:56Z,42.805,6.029,13.2978,4.59988,2470.063,2020-9-04T05:11:46Z
2020-09-04T03:14:00Z,42.805,6.029,13.2979,4.60010,2470.053,2020-9-04T05:14:51Z
2020-09-04T03:17:04Z,42.805,6.029,13.2986,4.60016,2470.04,2020-9-04T05:17:55Z
2020-09-04T03:20:06Z,42.805,6.029,13.2982,4.59996,2470.053,2020-9-04T05:20:57Z
2020-09-04T03:23:09Z,42.805,6.029,13.2991,4.59999,2470.077,2020-9-04T05:24:00Z
2020-09-04T03:26:12Z,42.805,6.029,13.2990,4.60017,2470.04,2020-9-04T05:27:03Z
2020-09-04T03:29:17Z,42.805,6.029,13.2979,4.59995,2470.053,2020-9-04T05:30:08Z
2020-09-04T03:32:19Z,42.805,6.029,13.2990,4.60009,2470.077,2020-9-04T05:33:09Z
2020-09-04T03:35:22Z,42.805,6.029,13.2984,4.59996,2470.053,2020-9-04T05:36:13Z
2020-09-04T03:38:26Z,42.805,6.029,13.2988,4.60004,2470.04,2020-9-04T05:39:16Z
2020-09-04T03:41:29Z,42.805,6.029,13.2987,4.60006,2470.04,2020-9-04T05:42:20Z
2020-09-04T03:44:34Z,42.805,6.029,13.2978,4.60003,2470.04,2020-9-04T05:45:24Z
2020-09-04T03:47:35Z,42.805,6.029,13.2982,4.60011,2470.1,2020-9-04T05:48:26Z
2020-09-04T03:50:40Z,42.805,6.029,13.2979,4.59995,2470.053,2020-9-04T05:51:30Z
2020-09-04T03:53:42Z,42.805,6.029,13.2971,4.59995,2470.04,2020-9-04T05:54:33Z
2020-09-04T03:56:46Z,42.805,6.029,13.2983,4.59999,2470.077,2020-9-04T05:57:36Z
2020-09-04T03:59:47Z,42.805,6.029,13.2983,4.60014,2470.063,2020-9-04T06:00:37Z
2020-09-04T04:02:50Z,42.805,6.029,13.2982,4.59993,2470.04,2020-9-04T06:03:41Z
2020-09-04T04:05:52Z,42.805,6.029,13.2981,4.59996,2470.063,2020-9-04T06:06:42Z
2020-09-04T04:08:55Z,42.805,6.029,13.2984,4.60014,2470.077,2020-9-04T06:09:46Z
2020-09-04T04:11:58Z,42.805,6.029,13.2993,4.60027,2470.04,2020-9-04T06:12:49Z
2020-09-04T04:15:00Z,42.805,6.029,13.3003,4.60022,2470.04,2020-9-04T06:15:51Z
2020-09-04T04:18:05Z,42.805,6.029,13.2983,4.60027,2470.077,2020-9-04T06:18:56Z
2020-09-04T04:21:10Z,42.805,6.029,13.2980,4.60015,2470.04,2020-9-04T06:22:01Z
2020-09-04T04:24:13Z,42.805,6.029,13.2996,4.60018,2470.063,2020-9-04T06:25:04Z
2020-09-04T04:27:17Z,42.805,6.029,13.2988,4.60018,2470.053,2020-9-04T06:28:08Z
2020-09-04T04:30:20Z,42.805,6.029,13.2986,4.60008,2470.063,2020-9-04T06:31:10Z
2020-09-04T04:33:23Z,42.805,6.029,13.2983,4.59999,2470.087,2020-9-04T06:34:14Z
2020-09-04T04:36:25Z,42.805,6.029,13.3004,4.60015,2470.077,2020-9-04T06:37:16Z
2020-09-04T04:39:29Z,42.805,6.029,13.2998,4.60031,2470.063,2020-9-04T06:40:20Z
2020-09-04T04:42:33Z,42.805,6.029,13.2978,4.60003,2470.04,2020-9-04T06:43:24Z
2020-09-04T04:45:37Z,42.805,6.029,13.2991,4.60020,2470.063,2020-9-04T06:46:28Z
2020-09-04T04:48:40Z,42.805,6.029,13.2996,4.60031,2470.063,2020-9-04T06:49:31Z
2020-09-04T04:51:44Z,42.805,6.029,13.2989,4.60018,2470.087,2020-9-04T06:52:35Z
2020-09-04T04:54:48Z,42.805,6.029,13.2996,4.60022,2470.063,2020-9-04T06:55:39Z
2020-09-04T04:57:52Z,42.805,6.029,13.2985,4.60034,2470.087,2020-9-04T06:58:43Z
2020-09-04T05:00:55Z,42.805,6.029,13.2991,4.60029,2470.1,2020-9-04T07:01:46Z
2020-09-04T05:04:00Z,42.805,6.029,13.2992,4.60011,2470.11,2020-9-04T07:04:51Z
2020-09-04T05:07:04Z,42.805,6.029,13.3000,4.59999,2470.11,2020-9-04T07:07:55Z
2020-09-04T05:10:08Z,42.805,6.029,13.3004,4.60031,2470.1,2020-9-04T07:10:59Z
2020-09-04T05:13:13Z,42.805,6.029,13.2989,4.60009,2470.1,2020-9-04T07:14:04Z
2020-09-04T05:16:16Z,42.805,6.029,13.2981,4.60025,2470.11,2020-9-04T07:17:07Z
2020-09-04T05:19:20Z,42.805,6.029,13.2998,4.60031,2470.1,2020-9-04T07:20:09Z
2020-09-04T05:22:19Z,42.805,6.029,13.3025,4.60035,2470.124,2020-9-04T07:23:10Z
2020-09-04T05:25:22Z,42.805,6.029,13.3000,4.60033,2470.087,2020-9-04T07:26:13Z
2020-09-04T05:28:26Z,42.805,6.029,13.3009,4.60045,2470.11,2020-9-04T07:29:16Z
2020-09-04T05:31:28Z,42.805,6.029,13.3006,4.60048,2470.133,2020-9-04T07:32:18Z
2020-09-04T05:34:32Z,42.805,6.029,13.3021,4.60039,2470.1,2020-9-04T07:35:23Z
2020-09-04T05:37:34Z,42.805,6.029,13.3021,4.60038,2470.124,2020-9-04T07:38:24Z
2020-09-04T05:40:38Z,42.805,6.029,13.3010,4.60047,2470.133,2020-9-04T07:41:28Z
2020-09-04T05:43:41Z,42.805,6.029,13.3029,4.60039,2470.147,2020-9-04T07:44:32Z
2020-09-04T05:46:44Z,42.805,6.029,13.3011,4.60060,2470.133,2020-9-04T07:47:35Z
2020-09-04T05:49:46Z,42.805,6.029,13.2994,4.60055,2470.147,2020-9-04T07:50:37Z
2020-09-04T05:52:50Z,42.805,6.029,13.3014,4.60054,2470.147,2020-9-04T07:53:41Z
2020-09-04T05:55:54Z,42.805,6.029,13.3005,4.59989,2470.133,2020-9-04T07:56:45Z
2020-09-04T05:58:58Z,42.805,6.029,13.3008,4.60040,2470.133,2020-9-04T07:59:49Z
2020-09-04T06:02:02Z,42.805,6.029,13.3010,4.60050,2470.156,2020-9-04T08:02:53Z
2020-09-04T06:05:05Z,42.805,6.029,13.3004,4.60043,2470.11,2020-9-04T08:05:56Z
2020-09-04T06:08:06Z,42.805,6.029,13.2993,4.60054,2470.119,2020-9-04T08:08:57Z
2020-09-04T06:11:08Z,42.805,6.029,13.3012,4.60054,2470.156,2020-9-04T08:11:59Z
2020-09-04T06:14:13Z,42.805,6.029,13.3019,4.60033,2470.147,2020-9-04T08:15:03Z
2020-09-04T06:17:16Z,42.805,6.029,13.3026,4.60031,2470.156,2020-9-04T08:18:07Z
2020-09-04T06:20:17Z,42.805,6.029,13.2997,4.60037,2470.171,2020-9-04T08:21:08Z
2020-09-04T06:23:19Z,42.805,6.029,13.3017,4.60067,2470.171,2020-9-04T08:24:10Z
2020-09-04T06:26:23Z,42.805,6.029,13.3021,4.60029,2470.156,2020-9-04T08:27:14Z
2020-09-04T06:29:27Z,42.805,6.029,13.3025,4.60084,2470.171,2020-9-04T08:30:18Z
2020-09-04T06:32:32Z,42.805,6.029,13.3006,4.60031,2470.194,2020-9-04T08:33:23Z
2020-09-04T06:35:36Z,42.805,6.029,13.3027,4.60022,2470.18,2020-9-04T08:36:27Z
2020-09-04T06:38:40Z,42.805,6.029,13.3028,4.60029,2470.194,2020-9-04T08:39:31Z
2020-09-04T06:41:41Z,42.805,6.029,13.3004,4.60054,2470.194,2020-9-04T08:42:32Z
2020-09-04T06:44:44Z,42.805,6.029,13.3019,4.60015,2470.18,2020-9-04T08:45:35Z
2020-09-04T06:47:46Z,42.805,6.029,13.3029,4.60004,2470.171,2020-9-04T08:48:37Z
2020-09-04T06:50:47Z,42.805,6.029,13.3004,4.59996,2470.194,2020-9-04T08:51:38Z
2020-09-04T06:53:49Z,42.805,6.029,13.2991,4.60041,2470.194,2020-9-04T08:54:40Z
2020-09-04T06:56:51Z,42.805,6.029,13.3002,4.60021,2470.18,2020-9-04T08:57:42Z
2020-09-04T06:59:54Z,42.805,6.029,13.2990,4.60017,2470.24,2020-9-04T09:00:45Z
2020-09-04T07:02:58Z,42.805,6.029,13.3022,4.60026,2470.203,2020-9-04T09:03:48Z
2020-09-04T07:06:01Z,42.805,6.029,13.3028,4.59990,2470.194,2020-9-04T09:06:51Z
2020-09-04T07:09:05Z,42.805,6.029,13.3037,4.59990,2470.203,2020-9-04T09:09:55Z
2020-09-04T07:12:06Z,42.805,6.029,13.3021,4.60012,2470.203,2020-9-04T09:12:57Z
2020-09-04T07:15:07Z,42.805,6.029,13.2985,4.60003,2470.217,2020-9-04T09:15:58Z
2020-09-04T07:18:10Z,42.805,6.029,13.2992,4.60019,2470.18,2020-9-04T09:19:00Z
2020-09-04T07:21:13Z,42.805,6.029,13.3014,4.60011,2470.18,2020-9-04T09:22:04Z
2020-09-04T07:24:17Z,42.805,6.029,13.2993,4.60006,2470.217,2020-9-04T09:25:08Z
2020-09-04T07:27:19Z,42.805,6.029,13.2984,4.60001,2470.227,2020-9-04T09:28:10Z
2020-09-04T07:30:21Z,42.805,6.029,13.2998,4.60008,2470.217,2020-9-04T09:31:12Z
2020-09-04T07:33:25Z,42.805,6.029,13.2983,4.60005,2470.203,2020-9-04T09:34:16Z
2020-09-04T07:36:30Z,42.805,6.029,13.3000,4.60002,2470.18,2020-9-04T09:37:20Z
2020-09-04T07:39:32Z,42.805,6.029,13.2994,4.60019,2470.217,2020-9-04T09:40:22Z
2020-09-04T07:42:36Z,42.805,6.029,13.3026,4.59986,2470.227,2020-9-04T09:43:27Z
2020-09-04T07:45:39Z,42.805,6.029,13.2990,4.59996,2470.18,2020-9-04T09:46:30Z
2020-09-04T07:48:43Z,42.805,6.029,13.3029,4.60003,2470.18,2020-9-04T09:49:33Z
2020-09-04T07:51:46Z,42.805,6.029,13.2993,4.60033,2470.203,2020-9-04T09:52:37Z
2020-09-04T07:54:51Z,42.805,6.029,13.3000,4.60002,2470.18,2020-9-04T09:55:42Z
2020-09-04T07:57:55Z,42.805,6.029,13.3017,4.60008,2470.203,2020-9-04T09:58:45Z
2020-09-04T08:00:59Z,42.805,6.029,13.3017,4.59997,2470.203,2020-9-04T10:01:49Z
2020-09-04T08:04:03Z,42.805,6.029,13.3000,4.60003,2470.203,2020-9-04T10:04:54Z
2020-09-04T08:07:08Z,42.805,6.029,13.3012,4.60011,2470.166,2020-9-04T10:07:58Z
2020-09-04T08:10:11Z,42.805,6.029,13.3004,4.60011,2470.264,2020-9-04T10:11:02Z
2020-09-04T08:13:14Z,42.805,6.029,13.3011,4.59999,2470.18,2020-9-04T10:14:05Z
2020-09-04T08:16:18Z,42.805,6.029,13.3002,4.59997,2470.217,2020-9-04T10:17:08Z
2020-09-04T08:19:20Z,42.805,6.029,13.3011,4.60024,2470.203,2020-9-04T10:20:11Z
2020-09-04T08:22:24Z,42.805,6.029,13.3011,4.59991,2470.227,2020-9-04T10:23:15Z
2020-09-04T08:25:29Z,42.805,6.029,13.3028,4.60015,2470.217,2020-9-04T10:26:20Z
2020-09-04T08:28:33Z,42.805,6.029,13.2991,4.59998,2470.217,2020-9-04T10:29:24Z
2020-09-04T08:31:35Z,42.805,6.029,13.2990,4.59996,2470.24,2020-9-04T10:32:26Z
2020-09-04T08:34:36Z,42.805,6.029,13.3008,4.59991,2470.227,2020-9-04T10:35:27Z
2020-09-04T08:37:41Z,42.805,6.029,13.2999,4.60002,2470.194,2020-9-04T10:38:32Z
2020-09-04T08:40:43Z,42.805,6.029,13.3006,4.60009,2470.203,2020-9-04T10:41:34Z
2020-09-04T08:43:45Z,42.805,6.029,13.3004,4.60018,2470.194,2020-9-04T10:44:36Z
2020-09-04T08:46:47Z,42.805,6.029,13.3024,4.60014,2470.194,2020-9-04T10:47:38Z
2020-09-04T08:49:51Z,42.805,6.029,13.3022,4.60008,2470.227,2020-9-04T10:50:42Z
2020-09-04T08:52:54Z,42.805,6.029,13.3010,4.60009,2470.203,2020-9-04T10:53:45Z
2020-09-04T08:55:56Z,42.805,6.029,13.3042,4.60000,2470.227,2020-9-04T10:56:46Z
2020-09-04T08:58:57Z,42.805,6.029,13.3004,4.59993,2470.203,2020-9-04T10:59:48Z
2020-09-04T09:02:00Z,42.805,6.029,13.3000,4.60029,2470.217,2020-9-04T11:02:51Z
2020-09-04T09:05:05Z,42.805,6.029,13.3006,4.60013,2470.18,2020-9-04T11:05:55Z
2020-09-04T09:08:07Z,42.805,6.029,13.2987,4.60033,2470.194,2020-9-04T11:08:58Z
2020-09-04T09:11:11Z,42.805,6.029,13.3039,4.60003,2470.203,2020-9-04T11:12:02Z
2020-09-04T09:14:14Z,42.805,6.029,13.3010,4.59994,2470.18,2020-9-04T11:15:05Z
2020-09-04T09:17:15Z,42.805,6.029,13.3030,4.59999,2470.24,2020-9-04T11:18:06Z
2020-09-04T09:20:19Z,42.805,6.029,13.3036,4.60002,2470.203,2020-9-04T11:21:10Z
2020-09-04T09:23:24Z,42.805,6.029,13.3008,4.60025,2470.24,2020-9-04T11:24:14Z
2020-09-04T09:26:25Z,42.805,6.029,13.3009,4.59989,2470.203,2020-9-04T11:27:16Z
2020-09-04T09:29:30Z,42.805,6.029,13.2991,4.60007,2470.18,2020-9-04T11:30:20Z
2020-09-04T09:32:31Z,42.805,6.029,13.3038,4.60021,2470.217,2020-9-04T11:33:22Z
2020-09-04T09:35:32Z,42.805,6.029,13.3016,4.60003,2470.18,2020-9-04T11:36:23Z
2020-09-04T09:38:33Z,42.805,6.029,13.2991,4.60026,2470.156,2020-9-04T11:39:24Z
2020-09-04T09:41:37Z,42.805,6.029,13.2989,4.60057,2470.217,2020-9-04T11:42:28Z
2020-09-04T09:44:42Z,42.805,6.029,13.2998,4.60046,2470.171,2020-9-04T11:45:33Z
2020-09-04T09:47:45Z,42.805,6.029,13.2990,4.60053,2470.18,2020-9-04T11:48:35Z
2020-09-04T09:50:49Z,42.805,6.029,13.3003,4.60034,2470.194,2020-9-04T11:51:39Z
2020-09-04T09:53:53Z,42.805,6.029,13.3026,4.60037,2470.171,2020-9-04T11:54:44Z
2020-09-04T09:56:54Z,42.805,6.029,13.3035,4.60017,2470.133,2020-9-04T11:57:45Z
2020-09-04T09:59:59Z,42.805,6.029,13.3030,4.59990,2470.194,2020-9-04T12:00:49Z
2020-09-04T10:03:00Z,42.805,6.029,13.3007,4.59998,2470.156,2020-9-04T12:03:51Z
2020-09-04T10:06:04Z,42.805,6.029,13.3009,4.59997,2470.194,2020-9-04T12:06:55Z
2020-09-04T10:09:07Z,42.805,6.029,13.3031,4.60019,2470.171,2020-9-04T12:09:58Z
2020-09-04T10:12:10Z,42.805,6.029,13.3015,4.60019,2470.147,2020-9-04T12:13:01Z
2020-09-04T10:15:12Z,42.805,6.029,13.3029,4.60009,2470.147,2020-9-04T12:16:02Z
2020-09-04T10:18:15Z,42.805,6.029,13.3026,4.60024,2470.171,2020-9-04T12:19:06Z
2020-09-04T10:21:18Z,42.805,6.029,13.3010,4.60008,2470.124,2020-9-04T12:22:09Z
2020-09-04T10:24:22Z,42.805,6.029,13.3009,4.59996,2470.147,2020-9-04T12:25:13Z
2020-09-04T10:27:25Z,42.805,6.029,13.2996,4.59997,2470.156,2020-9-04T12:28:16Z
2020-09-04T10:30:29Z,42.805,6.029,13.3003,4.59989,2470.124,2020-9-04T12:31:19Z
2020-09-04T10:33:34Z,42.805,6.029,13.2998,4.59992,2470.147,2020-9-04T12:34:24Z
2020-09-04T10:36:35Z,42.805,6.029,13.2998,4.59992,2470.147,2020-9-04T12:37:26Z
2020-09-04T10:39:37Z,42.805,6.029,13.2987,4.60002,2470.133,2020-9-04T12:40:27Z
2020-09-04T10:42:40Z,42.805,6.029,13.2991,4.60021,2470.156,2020-9-04T12:43:31Z
2020-09-04T10:45:43Z,42.805,6.029,13.2999,4.60011,2470.133,2020-9-04T12:46:34Z
2020-09-04T10:48:45Z,42.805,6.029,13.2996,4.60013,2470.147,2020-9-04T12:49:36Z
2020-09-04T10:51:47Z,42.805,6.029,13.2994,4.60003,2470.133,2020-9-04T12:52:38Z
2020-09-04T10:54:50Z,42.805,6.029,13.2980,4.60001,2470.11,2020-9-04T12:55:41Z
2020-09-04T10:57:55Z,42.805,6.029,13.3067,4.60002,2470.133,2020-9-04T12:58:46Z
2020-09-04T11:01:00Z,42.805,6.029,13.2983,4.60001,2470.11,2020-9-04T13:01:50Z
2020-09-04T11:04:03Z,42.805,6.029,13.2990,4.60028,2470.1,2020-9-04T13:04:54Z
2020-09-04T11:07:08Z,42.805,6.029,13.2974,4.59998,2470.147,2020-9-04T13:07:59Z
2020-09-04T11:10:11Z,42.805,6.029,13.2975,4.60006,2470.11,2020-9-04T13:11:02Z
2020-09-04T11:13:16Z,42.805,6.029,13.2971,4.59991,2470.1,2020-9-04T13:14:06Z
2020-09-04T11:16:20Z,42.805,6.029,13.2976,4.59982,2470.133,2020-9-04T13:17:11Z
2020-09-04T11:19:25Z,42.805,6.029,13.2968,4.59983,2470.11,2020-9-04T13:20:15Z
2020-09-04T11:22:28Z,42.805,6.029,13.2967,4.59980,2470.11,2020-9-04T13:23:19Z
2020-09-04T11:25:32Z,42.805,6.029,13.2974,4.59976,2470.11,2020-9-04T13:26:23Z
2020-09-04T11:28:35Z,42.805,6.029,13.2971,4.59999,2470.147,2020-9-04T13:29:26Z
2020-09-04T11:31:38Z,42.805,6.029,13.2972,4.59977,2470.1,2020-9-04T13:32:29Z
2020-09-04T11:34:41Z,42.805,6.029,13.2971,4.59977,2470.11,2020-9-04T13:35:32Z
2020-09-04T11:37:45Z,42.805,6.029,13.2972,4.59982,2470.11,2020-9-04T13:38:36Z
2020-09-04T11:40:47Z,42.805,6.029,13.2970,4.59985,2470.133,2020-9-04T13:41:38Z
2020-09-04T11:43:51Z,42.805,6.029,13.2968,4.59982,2470.087,2020-9-04T13:44:41Z
2020-09-04T11:46:53Z,42.805,6.029,13.2974,4.59985,2470.11,2020-9-04T13:47:43Z
2020-09-04T11:49:56Z,42.805,6.029,13.2971,4.59981,2470.124,2020-9-04T13:50:47Z
2020-09-04T11:52:57Z,42.805,6.029,13.2969,4.59980,2470.11,2020-9-04T13:53:48Z
2020-09-04T11:56:00Z,42.805,6.029,13.2967,4.59986,2470.1,2020-9-04T13:56:51Z
2020-09-04T11:59:02Z,42.805,6.029,13.2974,4.59983,2470.11,2020-9-04T13:59:53Z
2020-09-04T12:02:05Z,42.805,6.029,13.2973,4.59982,2470.087,2020-9-04T14:02:56Z
2020-09-04T12:05:09Z,42.805,6.029,13.2971,4.59981,2470.063,2020-9-04T14:06:00Z
2020-09-04T12:08:12Z,42.805,6.029,13.2967,4.59980,2470.087,2020-9-04T14:09:03Z
2020-09-04T12:11:15Z,42.805,6.029,13.2971,4.59987,2470.063,2020-9-04T14:12:06Z
2020-09-04T12:14:19Z,42.805,6.029,13.2971,4.59982,2470.124,2020-9-04T14:15:10Z
2020-09-04T12:17:24Z,42.805,6.029,13.2968,4.59982,2470.1,2020-9-04T14:18:14Z
2020-09-04T12:20:27Z,42.805,6.029,13.2971,4.59986,2470.087,2020-9-04T14:21:18Z
2020-09-04T12:23:31Z,42.805,6.029,13.2971,4.59981,2470.1,2020-9-04T14:24:22Z
2020-09-04T12:26:35Z,42.805,6.029,13.2968,4.59980,2470.11,2020-9-04T14:27:25Z
2020-09-04T12:29:36Z,42.805,6.029,13.2971,4.59978,2470.063,2020-9-04T14:30:27Z
2020-09-04T12:32:40Z,42.805,6.029,13.2967,4.59977,2470.1,2020-9-04T14:33:31Z
2020-09-04T12:35:42Z,42.805,6.029,13.2973,4.59976,2470.087,2020-9-04T14:36:33Z
2020-09-04T12:38:46Z,42.805,6.029,13.2971,4.59975,2470.087,2020-9-04T14:39:37Z
2020-09-04T12:41:47Z,42.805,6.029,13.2971,4.59977,2470.063,2020-9-04T14:42:38Z
2020-09-04T12:44:51Z,42.805,6.029,13.2968,4.59978,2470.063,2020-9-04T14:45:41Z
2020-09-04T12:47:52Z,42.805,6.029,13.2971,4.59980,2470.087,2020-9-04T14:48:43Z
2020-09-04T12:50:56Z,42.805,6.029,13.2967,4.59975,2470.087,2020-9-04T14:51:47Z
2020-09-04T12:53:58Z,42.805,6.029,13.2973,4.59981,2470.087,2020-9-04T14:54:48Z
2020-09-04T12:57:02Z,42.805,6.029,13.2974,4.59979,2470.063,2020-9-04T14:57:52Z
2020-09-04T13:00:03Z,42.805,6.029,13.2969,4.59980,2470.077,2020-9-04T15:00:54Z
2020-09-04T13:03:06Z,42.805,6.029,13.2974,4.59978,2470.073,2020-9-04T15:03:57Z
2020-09-04T13:06:10Z,42.805,6.029,13.2974,4.59983,2470.087,2020-9-04T15:07:00Z
2020-09-04T13:09:11Z,42.805,6.029,13.2970,4.59978,2470.077,2020-9-04T15:10:02Z
2020-09-04T13:12:15Z,42.805,6.029,13.2971,4.59980,2470.063,2020-9-04T15:13:06Z
2020-09-04T13:15:19Z,42.805,6.029,13.2971,4.59986,2470.077,2020-9-04T15:16:09Z
2020-09-04T13:18:22Z,42.805,6.029,13.2967,4.59983,2470.063,2020-9-04T15:19:13Z
2020-09-04T13:21:26Z,42.805,6.029,13.2972,4.59984,2470.053,2020-9-04T15:22:17Z
2020-09-04T13:24:29Z,42.805,6.029,13.2972,4.59983,2470.063,2020-9-04T15:25:20Z
2020-09-04T13:27:33Z,42.805,6.029,13.2973,4.59986,2470.063,2020-9-04T15:28:24Z
2020-09-04T13:30:36Z,42.805,6.029,13.2974,4.59985,2470.053,2020-9-04T15:31:27Z
2020-09-04T13:33:39Z,42.805,6.029,13.2971,4.59983,2470.053,2020-9-04T15:34:30Z
2020-09-04T13:36:44Z,42.805,6.029,13.2974,4.59986,2470.077,2020-9-04T15:37:35Z
2020-09-04T13:39:46Z,42.805,6.029,13.2970,4.59983,2470.053,2020-9-04T15:40:37Z
2020-09-04T13:42:50Z,42.805,6.029,13.2971,4.59982,2470.017,2020-9-04T15:43:41Z
2020-09-04T13:45:53Z,42.805,6.029,13.2968,4.59981,2470.03,2020-9-04T15:46:44Z
2020-09-04T13:48:57Z,42.805,6.029,13.2967,4.59978,2470.063,2020-9-04T15:49:47Z
2020-09-04T13:52:01Z,42.805,6.029,13.2969,4.59980,2470.04,2020-9-04T15:52:52Z
2020-09-04T13:55:05Z,42.805,6.029,13.2972,4.59975,2470.017,2020-9-04T15:55:56Z
2020-09-04T13:58:09Z,42.805,6.029,13.2969,4.59976,2470.017,2020-9-04T15:59:00Z
2020-09-04T14:01:10Z,42.805,6.029,13.2972,4.59976,2470.017,2020-9-04T16:02:01Z
2020-09-04T14:04:15Z,42.805,6.029,13.2968,4.59975,2470.04,2020-9-04T16:05:06Z
2020-09-04T14:07:20Z,42.805,6.029,13.2969,4.59978,2470.04,2020-9-04T16:08:11Z
2020-09-04T14:10:23Z,42.805,6.029,13.2973,4.59980,2470.04,2020-9-04T16:11:14Z
2020-09-04T14:13:25Z,42.805,6.029,13.2974,4.59983,2470.053,2020-9-04T16:14:16Z
2020-09-04T14:16:26Z,42.805,6.029,13.2969,4.59978,2470.04,2020-9-04T16:17:17Z
2020-09-04T14:19:28Z,42.805,6.029,13.2969,4.59981,2470.017,2020-9-04T16:20:18Z
2020-09-04T14:22:29Z,42.805,6.029,13.2971,4.59987,2470.03,2020-9-04T16:23:20Z
2020-09-04T14:25:32Z,42.805,6.029,13.2971,4.59982,2470.026,2020-9-04T16:26:23Z
2020-09-04T14:28:36Z,42.805,6.029,13.2982,4.60026,2470.063,2020-9-04T16:29:26Z
2020-09-04T14:31:38Z,42.805,6.029,13.2977,4.59978,2470.053,2020-9-04T16:32:28Z
2020-09-04T14:34:40Z,42.805,6.029,13.2973,4.59980,2470.04,2020-9-04T16:35:31Z
2020-09-04T14:37:45Z,42.805,6.029,13.2979,4.59983,2470.017,2020-9-04T16:38:36Z
2020-09-04T14:40:48Z,42.805,6.029,13.2979,4.59983,2470.04,2020-9-04T16:41:38Z
2020-09-04T14:43:50Z,42.805,6.029,13.2974,4.59981,2470.04,2020-9-04T16:44:40Z
2020-09-04T14:46:51Z,42.805,6.029,13.2973,4.59979,2470.03,2020-9-04T16:47:42Z
2020-09-04T14:49:54Z,42.805,6.029,13.2968,4.59976,2470.04,2020-9-04T16:50:45Z
2020-09-04T14:52:59Z,42.805,6.029,13.2979,4.60003,2470.03,2020-9-04T16:53:50Z
2020-09-04T14:56:00Z,42.805,6.029,13.3006,4.60010,2470.063,2020-9-04T16:56:51Z
2020-09-04T14:59:01Z,42.805,6.029,13.2977,4.59984,2470.017,2020-9-04T16:59:52Z
2020-09-04T15:02:02Z,42.805,6.029,13.2976,4.59976,2470.017,2020-9-04T17:02:53Z
2020-09-04T15:05:06Z,42.805,6.029,13.2978,4.59978,2470.017,2020-9-04T17:05:57Z
2020-09-04T15:08:07Z,42.805,6.029,13.2976,4.59973,2470.03,2020-9-04T17:08:58Z
2020-09-04T15:11:08Z,42.805,6.029,13.2974,4.59976,2469.993,2020-9-04T17:11:59Z
2020-09-04T15:14:12Z,42.805,6.029,13.2976,4.59982,2470.017,2020-9-04T17:15:03Z